Regional Weather Roundup
Issued by NWS San Diego, CA

Home | Current Version | Previous Version | Text Only | Print | Product List | Glossary On
Versions: 1 2 3 4 5 6 7 8 9 10 11 12 13 14 15 16 17 18 19 20 21 22 23 24 25 26 27 28 29 30 31 32 33 34 35 36 37 38 39 40 41 42 43 44 45 46 47 48 49 50
000
ASUS46 KSGX 160110
RWRSGX

SAN DIEGO HOURLY WEATHER ROUNDUP
NATIONAL WEATHER SERVICE SAN DIEGO CA
600 PM PDT MON SEP 15 2014

NOTE: "FAIR" INDICATES FEW OR NO CLOUDS BELOW 12,000 FEET WITH NO
SIGNIFICANT WEATHER AND/OR OBSTRUCTIONS TO VISIBILITY.

CAZ042-043-060-061-PZZ750-775-160200-

GREATER SAN DIEGO AREA

CITY           SKY/WX    TMP DP  RH WIND       PRES   REMARKS
LINDBERGH FLD  MOSUNNY   83  68  60 W8        29.76R
POINT LOMA       N/A     80  72  76 W9          N/A
NATIONAL CITY    N/A     81  73  76 SW9       29.76R
CHULA VISTA      N/A     81  74  78 W1        29.68S
IMPERIAL BEACH MOSUNNY   78  72  81 SW8       29.76R
BROWN FIELD    SUNNY     83  67  58 W6        29.77R
MIRAMAR MCAS   MOSUNNY   86  65  49 W6        29.76R
MONTGOMERY FLD SUNNY     89  61  38 NW7       29.76R

$$

NORTH SAN DIEGO COUNTY

CITY           SKY/WX    TMP DP  RH WIND       PRES   REMARKS
CAMP PENDLETON SUNNY     85  60  42 SW12      29.71R HAZE
OCEANSIDE AP   SUNNY     80  67  64 W10       29.73R
OCEANSIDE HBR    N/A     76  71  83 SW5       29.76R
VISTA            N/A     87  66  49 SW2       29.71R
CARLSBAD       SUNNY     80  66  62 SW6       29.75R
DEL MAR          N/A     79  70  73 CALM      29.77R
LA JOLLA SCRIP   N/A     78  74  87 NW2       29.73
FALLBROOK        N/A     85  63  47 S3        29.72R
ESCONDIDO        N/A     89  62  40 NW5       29.75R
SAN MARCOS       N/A     84  64  50 NW3       29.72R
POWAY            N/A     95  63  34 NW2       29.74R HX  96

$$

EAST SAN DIEGO COUNTY

CITY           SKY/WX    TMP DP  RH WIND       PRES   REMARKS
RAMONA         SUNNY     92  56  29 W13       29.81R
SANTEE LAKES     N/A     93  60  33 W5        29.74R
LA MESA          N/A     93  65  40 W5        29.68R HX  95
JAMUL            N/A     94  68  42 CALM      29.72R HX  99
DESCANSO N       N/A     89  55  31 W3        29.63R
MT. LAGUNA OBS   N/A     76  47  35 N2        29.73S
CAMPO            N/A     91  56  30 SW15      29.85R

$$

ORANGE COUNTY AND THE LOS ANGELES BASIN

CITY           SKY/WX    TMP DP  RH WIND       PRES   REMARKS
JOHN WAYNE AP  MOSUNNY   93  58  30 SW5       29.72S
LAGUNA BEACH     N/A     88  67  49 S6        29.68S
LAKE FOREST FR   N/A     96  55  25 W5        29.62S
SANTA ANA        N/A     95  61  32 CALM      29.67S HX  95
HUNTINGTON BCH   N/A     82  68  60 W1        29.74F
LOS ALAMITOS   FAIR      94  58  29 W7        29.71F
FULLERTON      SUNNY     95  54  25 VRB5      29.70F
LONG BEACH     SUNNY     92  57  30 NW12      29.71S
L.A. AP        MOSUNNY   85  58  39 W14       29.71F
L.A. DOWNTOWN  SUNNY     92  57  30 VRB3      29.70F

$$

THE INLAND EMPIRE

CITY           SKY/WX    TMP DP  RH WIND       PRES   REMARKS
CHINO          MOSUNNY   98  52  21 W13       29.74R HX  95
ONTARIO        MOSUNNY   99  49  18 W13G20    29.74S HX  96
SAN BERNARDINO MOSUNNY  100  45  15 SW18      29.75  HX  96
RIVERSIDE AP   SUNNY     98  52  21 W10       29.74R HX  95
RIV CYN CREST    N/A     98  62  30 W3        29.73R HX  99
MORENO VALLEY    N/A     97  55  24 W6          N/A  HX  95
MARCH ARB      SUNNY     97  53  22 W17       29.79R
HORSETHIEF CYN   N/A    101  48  16 SW8       29.72R HX  98
PERRIS           N/A     98  51  20 W12       29.75S HX  95
MENIFEE          N/A    102  53  19 SW6       29.80R HX  99
HEMET EAST       N/A     95  52  22 SW3       29.70S
FRENCH VALLEY  FAIR     100  59  25 S13       29.78R HX 100
TEMECULA         N/A     98  58  26 S6        29.70R HX  97

$$

SAN BERNARDINO AND RIVERSIDE COUNTY MOUNTAINS

CITY           SKY/WX    TMP DP  RH WIND       PRES   REMARKS
BIG BEAR AP    CLOUDY    75  43  31 NE10      30.22F
PINE COVE        N/A     77  50  38 CALM      29.70S

$$

SOUTHERN DESERT INCLUDING THE COACHELLA VALLEY

CITY           SKY/WX    TMP DP  RH WIND       PRES   REMARKS
PALM SPRINGS   FAIR     108  53  16 E13       29.70S HX 106
THOUSAND PALMS   N/A    107  55  17 SE6       29.64S HX 106
PALM DESERT      N/A    109  60  20 SE1         N/A  HX 110
THERMAL        CLEAR    107  58  20 SE10      29.63S HX 107
BLYTHE         CLEAR    108  56  18 NE8       29.69S HX 107
IMPERIAL AP    CLEAR    107  57  19 W6        29.64F HX 107
EL CENTRO NAS  PTCLDY   107  54  17 SW6       29.65F HX 105
YUMA AZ        MOCLDY   108  49  14 S6        29.67S HX 104
MEXICALI       PTCLDY   108  50  14 SE6       29.66  HX 104

$$

UPPER DESERT

CITY           SKY/WX    TMP DP  RH WIND       PRES   REMARKS
VICTORVILLE AP MOSUNNY   97  41  14 N5        29.89S
HESPERIA         N/A     97  45  16 SE2       29.80F
APPLE VALLEY     N/A     96  44  16 CALM      29.95S
PALMDALE       MOSUNNY   97  48  18 W20       29.87S
LANCASTER      MOSUNNY   96  48  19 W17       29.86S
EDWARDS AFB    MOSUNNY  100  43  14 W6        29.84S HX  95
DAGGETT        SUNNY    102  43  13 NE9       29.81S HX  97
29 PALMS N     PTCLDY   100  46  16 E6        29.89S HX  96
NEEDLES        FAIR     107  49  14 NE7       29.74S HX 104

$$

REGIONAL REPORTS

CITY           SKY/WX    TMP DP  RH WIND       PRES   REMARKS
SANTA BARBARA  SUNNY     83  64  52 SE5       29.74F
SANDBERG       SUNNY     87  43  21 NW15G23   30.07R
MT. WILSON       N/A     86  48  26 MISG        N/A
LAS VEGAS NV   PTCLDY   101  41  12 VRB5      29.81S HX  96
PHOENIX AZ     MOCLDY   101  56  22 CALM      29.76R HX 100
TIJUANA        MOSUNNY   86  61  42 W9        29.77S
ENSENADA NW      N/A     80  32  17 NW2       29.72F

$$

OFFSHORE ISLANDS

CITY           SKY/WX    TMP DP  RH WIND       PRES   REMARKS
CATALINA ARPT  SUNNY     88  53  30 W9        29.85S
SAN CLEMENTE I MOSUNNY   77  64  64 W8        29.78S
SAN NICOLAS IS SUNNY    N/A N/A N/A W26G38    29.78F

$$

MARINE AND OFFSHORE BUOY REPORTS

STATION/POSITION SKY/WX   TEMP    WIND        PRES    SWELL
                          AIR SEA DIR/SP/G            HT/PER/DIR
                          (F)     (DEG/KT/KT) (MB)    (FT/S/D)
TANNER BANKS               69 70  310/ 19/ 23 1008.5F   3/300/21
S CLEMENTE BASIN           75 74  290/  6/  8 1007.3R   3/270/21
SAN NICOLAS IS.               66                N/A     3/180/22
SO. S. ROSA ISLA           68 70  320/ 21/ 27 1008.8S
W. S. BARBARA CH           65 66  320/ 23/ 27 1008.9S   2/270/21
M. S. BARBARA CH           72 68  270/ 16/ 17 1007.6
S. MONICA BASIN            75 74  330/  6/  6 1006.6F   3/210/21
S PEDRO CHANNEL               74                N/A     2/200/22
DANA POINT                    72                N/A     2/200/22
CMP PENDLETON NS              72                N/A     2/220/22
OCEANSIDE OFFSHR              74                N/A     2/200/22
TORREY PINES OTR              76                N/A     2/220/20
LA JOLLA 1                 81 66  290/  1/  2 1007.5R
MISSION BAY BUOY              76                N/A     2/240/22
SAN DIEGO BAY                                 1007.9R

$$



USA.gov is the U.S. government's official web portal to all federal, state and local government web resources and services.